Hourly Weather Kizhinga

Today, 29 July, Thursday

Time Temperature Precipitation Wind Pressure Humidity
00:00 +16°C° 0 mm 1 mps 691 mmHg 90%
01:00 +15°C° 0 mm 1 mps 691 mmHg 92%
02:00 +15°C° 0 mm 1 mps 691 mmHg 93%
03:00 +14°C° 0 mm 1 mps 691 mmHg 94%
04:00 +14°C° 0 mm 1 mps 691 mmHg 95%
05:00 +16°C° 0 mm 1 mps 691 mmHg 86%
06:00 +18°C° 0 mm 1 mps 692 mmHg 78%
07:00 +20°C° 0 mm 1 mps 692 mmHg 69%
08:00 +21°C° 0 mm 2 mps 692 mmHg 61%
09:00 +24°C° 0 mm 2 mps 692 mmHg 53%
10:00 +26°C° 0 mm 2 mps 692 mmHg 45%
11:00 +27°C° 0 mm 2 mps 692 mmHg 42%
12:00 +28°C° 0 mm 2 mps 691 mmHg 38%
13:00 +29°C° 0 mm 2 mps 691 mmHg 35%
14:00 +29°C° 0 mm 3 mps 691 mmHg 34%
15:00 +29°C° 0 mm 3 mps 691 mmHg 34%
16:00 +29°C° 0 mm 4 mps 691 mmHg 34%
17:00 +27°C° 0 mm 3 mps 691 mmHg 41%
18:00 +25°C° 0 mm 3 mps 691 mmHg 49%
19:00 +23°C° 0 mm 2 mps 691 mmHg 57%
20:00 +20°C° 0 mm 2 mps 691 mmHg 63%
21:00 +19°C° 0 mm 2 mps 691 mmHg 70%
22:00 +18°C° 0 mm 1 mps 691 mmHg 77%
23:00 +18°C° 0 mm 1 mps 691 mmHg 79%

Tomorrow, 30 July, Friday

Time Temperature Precipitation Wind Pressure Humidity
00:00 +18°C° 0 mm 1 mps 692 mmHg 81%
01:00 +18°C° 0 mm 1 mps 692 mmHg 83%
02:00 +16°C° 0 mm 1 mps 692 mmHg 85%
03:00 +16°C° 0 mm 1 mps 692 mmHg 87%
04:00 +16°C° 0 mm 1 mps 692 mmHg 90%
05:00 +17°C° 0 mm 2 mps 693 mmHg 83%
06:00 +18°C° 0 mm 2 mps 693 mmHg 76%
07:00 +20°C° 0 mm 3 mps 694 mmHg 70%
08:00 +21°C° 0 mm 3 mps 694 mmHg 64%
09:00 +22°C° 0 mm 3 mps 694 mmHg 58%
10:00 +23°C° 0 mm 4 mps 694 mmHg 52%
11:00 +25°C° 0 mm 3 mps 694 mmHg 47%
12:00 +26°C° 0 mm 3 mps 693 mmHg 43%
13:00 +27°C° 0 mm 3 mps 693 mmHg 39%
14:00 +27°C° 0 mm 3 mps 693 mmHg 40%
15:00 +27°C° 0 mm 2 mps 693 mmHg 41%
16:00 +26°C° 0 mm 2 mps 693 mmHg 42%
17:00 +25°C° 0 mm 2 mps 693 mmHg 49%
18:00 +23°C° 0 mm 2 mps 694 mmHg 56%
19:00 +21°C° 0 mm 3 mps 694 mmHg 63%
20:00 +20°C° 0 mm 2 mps 694 mmHg 69%
21:00 +18°C° 0 mm 2 mps 694 mmHg 76%
22:00 +17°C° 0 mm 2 mps 694 mmHg 82%
23:00 +16°C° 0 mm 2 mps 694 mmHg 86%

Day after tomorrow, 31 July, Saturday

Time Temperature Precipitation Wind Pressure Humidity
00:00 +15°C° 0 mm 1 mps 695 mmHg 89%
01:00 +14°C° 0 mm 1 mps 695 mmHg 93%
02:00 +14°C° 0 mm 1 mps 695 mmHg 94%
03:00 +13°C° 0 mm 1 mps 696 mmHg 94%
04:00 +13°C° 0 mm 1 mps 696 mmHg 95%
05:00 +14°C° 0 mm 1 mps 697 mmHg 89%
06:00 +16°C° 0 mm 1 mps 697 mmHg 82%
07:00 +18°C° 0 mm 1 mps 698 mmHg 76%
08:00 +20°C° 0 mm 1 mps 698 mmHg 68%
09:00 +22°C° 0 mm 1 mps 698 mmHg 61%
10:00 +24°C° 0 mm 1 mps 698 mmHg 53%
11:00 +24°C° 0 mm 1 mps 698 mmHg 52%
12:00 +25°C° 0 mm 2 mps 698 mmHg 51%
13:00 +25°C° 0 mm 2 mps 698 mmHg 50%
14:00 +25°C° 0 mm 2 mps 698 mmHg 49%
15:00 +26°C° 0 mm 1 mps 698 mmHg 49%
16:00 +26°C° 0 mm 1 mps 698 mmHg 48%
17:00 +25°C° 0 mm 1 mps 697 mmHg 52%
18:00 +24°C° 0 mm 1 mps 697 mmHg 56%
19:00 +21°C° 0 mm 0 mps 697 mmHg 60%
20:00 +20°C° 0 mm 0 mps 697 mmHg 63%
21:00 +21°C° 0 mm 1 mps 697 mmHg 65%
22:00 +20°C° 0 mm 1 mps 697 mmHg 68%
23:00 +19°C° 0 mm 1 mps 697 mmHg 73%

1 August, Sunday

Time Temperature Precipitation Wind Pressure Humidity
00:00 +18°C° 0 mm 1 mps 697 mmHg 78%
01:00 +16°C° 0 mm 1 mps 697 mmHg 83%
02:00 +15°C° 0 mm 1 mps 697 mmHg 86%
03:00 +13°C° 0 mm 0 mps 697 mmHg 89%
04:00 +13°C° 0 mm 0 mps 697 mmHg 91%
05:00 +15°C° 0 mm 0 mps 697 mmHg 83%
06:00 +17°C° 0 mm 0 mps 697 mmHg 74%
07:00 +21°C° 0 mm 1 mps 697 mmHg 65%
08:00 +23°C° 0 mm 1 mps 697 mmHg 58%
09:00 +25°C° 0 mm 1 mps 697 mmHg 50%
10:00 +27°C° 0 mm 1 mps 697 mmHg 42%
11:00 +28°C° 0 mm 1 mps 696 mmHg 38%
12:00 +29°C° 0 mm 1 mps 696 mmHg 34%
13:00 +30°C° 0 mm 1 mps 695 mmHg 31%
14:00 +30°C° 0 mm 1 mps 695 mmHg 30%
15:00 +30°C° 0 mm 1 mps 695 mmHg 29%
16:00 +30°C° 0 mm 1 mps 694 mmHg 28%
17:00 +28°C° 0 mm 1 mps 694 mmHg 37%
18:00 +26°C° 0 mm 1 mps 694 mmHg 46%
19:00 +23°C° 0 mm 2 mps 693 mmHg 55%
20:00 +21°C° 0 mm 2 mps 693 mmHg 60%
21:00 +20°C° 0 mm 2 mps 693 mmHg 65%
22:00 +20°C° 0 mm 1 mps 693 mmHg 70%
23:00 +19°C° 0 mm 1 mps 693 mmHg 73%

2 August, Monday

Time Temperature Precipitation Wind Pressure Humidity
00:00 +18°C° 0 mm 1 mps 692 mmHg 76%
01:00 +16°C° 0 mm 1 mps 692 mmHg 78%
02:00 +16°C° 0 mm 1 mps 692 mmHg 81%
03:00 +14°C° 0 mm 0 mps 691 mmHg 83%
04:00 +13°C° 0 mm 0 mps 691 mmHg 85%
05:00 +15°C° 0 mm 0 mps 691 mmHg 77%
06:00 +17°C° 0 mm 0 mps 691 mmHg 69%
07:00 +19°C° 0 mm 0 mps 691 mmHg 61%
08:00 +23°C° 0 mm 1 mps 691 mmHg 55%
09:00 +25°C° 0 mm 1 mps 691 mmHg 49%
10:00 +27°C° 0 mm 2 mps 690 mmHg 43%
11:00 +26°C° 0 mm 3 mps 690 mmHg 46%
12:00 +25°C° 0 mm 3 mps 689 mmHg 50%
13:00 +23°C° 0 mm 4 mps 689 mmHg 53%
14:00 +22°C° 0 mm 3 mps 689 mmHg 56%
15:00 +22°C° 0 mm 3 mps 689 mmHg 59%
16:00 +21°C° 0 mm 3 mps 689 mmHg 63%
17:00 +20°C° 0 mm 2 mps 689 mmHg 68%
18:00 +19°C° 0 mm 2 mps 689 mmHg 74%
19:00 +18°C° 0 mm 2 mps 689 mmHg 79%
20:00 +18°C° 0 mm 2 mps 689 mmHg 81%
21:00 +18°C° 0 mm 2 mps 689 mmHg 83%
22:00 +17°C° 0 mm 2 mps 689 mmHg 85%
23:00 +17°C° 0.1 mm 2 mps 689 mmHg 86%

3 August, Tuesday

Time Temperature Precipitation Wind Pressure Humidity
00:00 +17°C° 0.1 mm 2 mps 689 mmHg 87%
01:00 +16°C° 0.1 mm 2 mps 689 mmHg 88%
02:00 +16°C° 0.4 mm 1 mps 689 mmHg 90%
03:00 +15°C° 0.4 mm 1 mps 690 mmHg 91%
04:00 +15°C° 0.4 mm 1 mps 690 mmHg 93%
05:00 +15°C° 0.1 mm 1 mps 690 mmHg 91%
06:00 +16°C° 0.1 mm 1 mps 690 mmHg 88%
07:00 +16°C° 0.1 mm 1 mps 691 mmHg 86%
08:00 +17°C° 0 mm 2 mps 691 mmHg 81%
09:00 +18°C° 0 mm 2 mps 691 mmHg 76%
10:00 +19°C° 0 mm 2 mps 692 mmHg 71%
11:00 +21°C° 0 mm 3 mps 692 mmHg 63%
12:00 +24°C° 0 mm 3 mps 692 mmHg 55%
13:00 +25°C° 0 mm 3 mps 692 mmHg 46%
14:00 +26°C° 0 mm 3 mps 692 mmHg 45%
15:00 +26°C° 0 mm 3 mps 692 mmHg 43%
16:00 +26°C° 0 mm 4 mps 692 mmHg 42%
17:00 +25°C° 0 mm 3 mps 692 mmHg 47%
18:00 +22°C° 0 mm 3 mps 692 mmHg 52%
19:00 +21°C° 0 mm 2 mps 692 mmHg 56%
20:00 +19°C° 0 mm 2 mps 693 mmHg 62%
21:00 +19°C° 0 mm 1 mps 693 mmHg 67%
22:00 +16°C° 0 mm 1 mps 693 mmHg 73%
23:00 +16°C° 0 mm 1 mps 693 mmHg 77%
Show more